Year,Month,Day,Hour,Minute,Value (Times are PST for temperature in C)
2006,07,19,00,00,15.10
2006,07,19,00,01,15.10
2006,07,19,00,02,15.00
2006,07,19,00,03,15.00
2006,07,19,00,04,15.00
2006,07,19,00,05,15.00
2006,07,19,00,06,15.00
2006,07,19,00,07,15.00
2006,07,19,00,08,15.00
2006,07,19,00,09,15.00
2006,07,19,00,10,15.00
2006,07,19,00,11,15.00
2006,07,19,00,12,14.90
2006,07,19,00,13,14.80
2006,07,19,00,14,14.80
2006,07,19,00,15,14.80
2006,07,19,00,16,14.80
2006,07,19,00,17,14.80
2006,07,19,00,18,14.70
2006,07,19,00,19,14.70
2006,07,19,00,20,14.70
2006,07,19,00,21,14.70
2006,07,19,00,22,14.70
2006,07,19,00,23,14.60
2006,07,19,00,24,14.60
2006,07,19,00,25,14.60
2006,07,19,00,26,14.60
2006,07,19,00,27,14.60
2006,07,19,00,28,14.60
2006,07,19,00,29,14.60
2006,07,19,00,30,14.60
2006,07,19,00,31,14.60
2006,07,19,00,32,14.60
2006,07,19,00,33,14.60
2006,07,19,00,34,14.60
2006,07,19,00,35,14.60
2006,07,19,00,36,14.60
2006,07,19,00,37,14.70
2006,07,19,00,38,14.70
2006,07,19,00,39,14.70
2006,07,19,00,40,14.70
2006,07,19,00,41,14.70
2006,07,19,00,42,14.70
2006,07,19,00,43,14.70
2006,07,19,00,44,14.70
2006,07,19,00,45,14.70
2006,07,19,00,46,14.60
2006,07,19,00,47,14.60
2006,07,19,00,48,14.60
2006,07,19,00,49,14.60
2006,07,19,00,50,14.60
2006,07,19,00,51,14.60
2006,07,19,00,52,14.60
2006,07,19,00,53,14.50
2006,07,19,00,54,14.50
2006,07,19,00,55,14.50
2006,07,19,00,56,14.40
2006,07,19,00,57,14.40
2006,07,19,00,58,14.40
2006,07,19,00,59,14.40
2006,07,19,01,00,14.40
2006,07,19,01,01,14.40
2006,07,19,01,02,14.30
2006,07,19,01,03,14.30
2006,07,19,01,04,14.30
2006,07,19,01,05,14.30
2006,07,19,01,06,14.30
2006,07,19,01,07,14.30
2006,07,19,01,08,14.20
2006,07,19,01,09,14.20
2006,07,19,01,10,14.20
2006,07,19,01,11,14.20
2006,07,19,01,12,14.20
2006,07,19,01,13,14.10
2006,07,19,01,14,14.10
2006,07,19,01,15,14.10
2006,07,19,01,16,14.10
2006,07,19,01,17,14.00
2006,07,19,01,18,14.00
2006,07,19,01,19,14.00
2006,07,19,01,20,13.90
2006,07,19,01,21,13.90
2006,07,19,01,22,13.90
2006,07,19,01,23,13.80
2006,07,19,01,24,13.80
2006,07,19,01,25,13.80
2006,07,19,01,26,13.80
2006,07,19,01,27,13.80
2006,07,19,01,28,13.80
2006,07,19,01,29,13.70
2006,07,19,01,30,13.70
2006,07,19,01,31,13.80
2006,07,19,01,32,13.80
2006,07,19,01,33,13.90
2006,07,19,01,34,13.90
2006,07,19,01,35,13.90
2006,07,19,01,36,14.00
2006,07,19,01,37,14.00
2006,07,19,01,38,14.00
2006,07,19,01,39,14.00
2006,07,19,01,40,14.00
2006,07,19,01,41,14.00
2006,07,19,01,42,13.90
2006,07,19,01,43,13.90
2006,07,19,01,44,13.90
2006,07,19,01,45,13.90
2006,07,19,01,46,13.80
2006,07,19,01,47,13.80
2006,07,19,01,48,13.80
2006,07,19,01,49,13.80
2006,07,19,01,50,13.70
2006,07,19,01,51,13.70
2006,07,19,01,52,13.70
2006,07,19,01,53,13.70
2006,07,19,01,54,13.60
2006,07,19,01,55,13.60
2006,07,19,01,56,13.60
2006,07,19,01,57,13.50
2006,07,19,01,58,13.50
2006,07,19,01,59,13.40
2006,07,19,02,00,13.40
2006,07,19,02,01,13.40
2006,07,19,02,02,13.30
2006,07,19,02,03,13.30
2006,07,19,02,04,13.30
2006,07,19,02,05,13.20
2006,07,19,02,06,13.20
2006,07,19,02,07,13.20
2006,07,19,02,08,13.20
2006,07,19,02,09,13.10
2006,07,19,02,10,13.10
2006,07,19,02,11,13.10
2006,07,19,02,12,13.10
2006,07,19,02,13,13.10
2006,07,19,02,14,13.10
2006,07,19,02,15,13.10
2006,07,19,02,16,13.10
2006,07,19,02,17,13.10
2006,07,19,02,18,13.10
2006,07,19,02,19,13.10
2006,07,19,02,20,13.10
2006,07,19,02,21,13.10
2006,07,19,02,22,13.10
2006,07,19,02,23,13.00
2006,07,19,02,24,13.00
2006,07,19,02,25,13.00
2006,07,19,02,26,13.00
2006,07,19,02,27,13.00
2006,07,19,02,28,13.00
2006,07,19,02,29,13.00
2006,07,19,02,30,13.00
2006,07,19,02,31,13.00
2006,07,19,02,32,13.00
2006,07,19,02,33,12.90
2006,07,19,02,34,12.90
2006,07,19,02,35,12.90
2006,07,19,02,36,12.90
2006,07,19,02,37,12.90
2006,07,19,02,38,12.90
2006,07,19,02,39,12.90
2006,07,19,02,40,12.90
2006,07,19,02,41,12.90
2006,07,19,02,42,12.80
2006,07,19,02,43,12.80
2006,07,19,02,44,12.80
2006,07,19,02,45,12.80
2006,07,19,02,46,12.80
2006,07,19,02,47,12.80
2006,07,19,02,48,12.80
2006,07,19,02,49,12.80
2006,07,19,02,50,12.70
2006,07,19,02,51,12.70
2006,07,19,02,52,12.70
2006,07,19,02,53,12.70
2006,07,19,02,54,12.60
2006,07,19,02,55,12.60
2006,07,19,02,56,12.60
2006,07,19,02,57,12.60
2006,07,19,02,58,12.50
2006,07,19,02,59,12.50
2006,07,19,03,00,12.50
2006,07,19,03,01,12.40
2006,07,19,03,02,12.40
2006,07,19,03,03,12.30
2006,07,19,03,04,12.30
2006,07,19,03,05,12.30
2006,07,19,03,06,12.30
2006,07,19,03,07,12.30
2006,07,19,03,08,12.30
2006,07,19,03,09,12.20
2006,07,19,03,10,12.20
2006,07,19,03,11,12.20
2006,07,19,03,12,12.20
2006,07,19,03,13,12.20
2006,07,19,03,14,12.20
2006,07,19,03,15,12.10
2006,07,19,03,16,12.10
2006,07,19,03,17,12.10
2006,07,19,03,18,12.10
2006,07,19,03,19,12.10
2006,07,19,03,20,12.10
2006,07,19,03,21,12.00
2006,07,19,03,22,12.00
2006,07,19,03,23,12.00
2006,07,19,03,24,11.90
2006,07,19,03,25,11.90
2006,07,19,03,26,11.90
2006,07,19,03,27,11.90
2006,07,19,03,28,11.90
2006,07,19,03,29,11.90
2006,07,19,03,30,11.90
2006,07,19,03,31,11.90
2006,07,19,03,32,11.80
2006,07,19,03,33,11.80
2006,07,19,03,34,11.80
2006,07,19,03,35,11.80
2006,07,19,03,36,11.80
2006,07,19,03,37,11.70
2006,07,19,03,38,11.70
2006,07,19,03,39,11.70
2006,07,19,03,40,11.60
2006,07,19,03,41,11.60
2006,07,19,03,42,11.60
2006,07,19,03,43,11.60
2006,07,19,03,44,11.50
2006,07,19,03,45,11.50
2006,07,19,03,46,11.50
2006,07,19,03,47,11.50
2006,07,19,03,48,11.40
2006,07,19,03,49,11.50
2006,07,19,03,50,11.50
2006,07,19,03,51,11.50
2006,07,19,03,52,11.50
2006,07,19,03,53,11.50
2006,07,19,03,54,11.50
2006,07,19,03,55,11.50
2006,07,19,03,56,11.50
2006,07,19,03,57,11.50
2006,07,19,03,58,11.50
2006,07,19,03,59,11.40
2006,07,19,04,00,11.40
2006,07,19,04,01,11.40
2006,07,19,04,02,11.40
2006,07,19,04,03,11.30
2006,07,19,04,04,11.30
2006,07,19,04,05,11.30
2006,07,19,04,06,11.30
2006,07,19,04,07,11.30
2006,07,19,04,08,11.30
2006,07,19,04,09,11.20
2006,07,19,04,10,11.20
2006,07,19,04,11,11.20
2006,07,19,04,12,11.20
2006,07,19,04,13,11.10
2006,07,19,04,14,11.10
2006,07,19,04,15,11.10
2006,07,19,04,16,11.10
2006,07,19,04,17,11.00
2006,07,19,04,18,11.00
2006,07,19,04,19,11.00
2006,07,19,04,20,10.90
2006,07,19,04,21,10.90
2006,07,19,04,22,10.90
2006,07,19,04,23,10.90
2006,07,19,04,24,10.90
2006,07,19,04,25,10.90
2006,07,19,04,26,10.90
2006,07,19,04,27,10.90
2006,07,19,04,28,10.90
2006,07,19,04,29,10.90
2006,07,19,04,30,10.90
2006,07,19,04,31,10.90
2006,07,19,04,32,10.90
2006,07,19,04,33,10.90
2006,07,19,04,34,10.90
2006,07,19,04,35,10.90
2006,07,19,04,36,10.90
2006,07,19,04,37,10.90
2006,07,19,04,38,10.90
2006,07,19,04,39,10.90
2006,07,19,04,40,10.80
2006,07,19,04,41,10.80
2006,07,19,04,42,10.80
2006,07,19,04,43,10.80
2006,07,19,04,44,10.70
2006,07,19,04,45,10.70
2006,07,19,04,46,10.70
2006,07,19,04,47,10.70
2006,07,19,04,48,10.80
2006,07,19,04,49,10.80
2006,07,19,04,50,10.80
2006,07,19,04,51,10.80
2006,07,19,04,52,10.80
2006,07,19,04,53,10.90
2006,07,19,04,54,10.90
2006,07,19,04,55,10.90
2006,07,19,04,56,10.90
2006,07,19,04,57,10.90
2006,07,19,04,58,10.90
2006,07,19,04,59,10.90
2006,07,19,05,00,10.90
2006,07,19,05,01,10.90
2006,07,19,05,02,10.90
2006,07,19,05,03,10.90
2006,07,19,05,04,10.90
2006,07,19,05,05,10.90
2006,07,19,05,06,10.90
2006,07,19,05,07,10.90
2006,07,19,05,08,10.90
2006,07,19,05,09,10.90
2006,07,19,05,10,10.90
2006,07,19,05,11,10.90
2006,07,19,05,12,10.90
2006,07,19,05,13,10.90
2006,07,19,05,14,11.00
2006,07,19,05,15,11.00
2006,07,19,05,16,11.00
2006,07,19,05,17,11.00
2006,07,19,05,18,11.00
2006,07,19,05,19,11.10
2006,07,19,05,20,11.10
2006,07,19,05,21,11.00
2006,07,19,05,22,11.00
2006,07,19,05,23,11.00
2006,07,19,05,24,11.00
2006,07,19,05,25,11.00
2006,07,19,05,26,11.00
2006,07,19,05,27,10.90
2006,07,19,05,28,10.90
2006,07,19,05,29,10.90
2006,07,19,05,30,10.90
2006,07,19,05,31,10.90
2006,07,19,05,32,10.90
2006,07,19,05,33,10.90
2006,07,19,05,34,10.80
2006,07,19,05,35,10.80
2006,07,19,05,36,10.80
2006,07,19,05,37,10.80
2006,07,19,05,38,10.80
2006,07,19,05,39,10.80
2006,07,19,05,40,10.80
2006,07,19,05,41,10.80
2006,07,19,05,42,10.80
2006,07,19,05,43,10.80
2006,07,19,05,44,10.80
2006,07,19,05,45,10.70
2006,07,19,05,46,10.70
2006,07,19,05,47,10.70
2006,07,19,05,48,10.70
2006,07,19,05,49,10.70
2006,07,19,05,50,10.70
2006,07,19,05,51,10.70
2006,07,19,05,52,10.70
2006,07,19,05,53,10.70
2006,07,19,05,54,10.70
2006,07,19,05,55,10.60
2006,07,19,05,56,10.60
2006,07,19,05,57,10.60
2006,07,19,05,58,10.60
2006,07,19,05,59,10.60
2006,07,19,06,00,10.50
2006,07,19,06,01,10.50
2006,07,19,06,02,10.50
2006,07,19,06,03,10.50
2006,07,19,06,04,10.50
2006,07,19,06,05,10.50
2006,07,19,06,06,10.50
2006,07,19,06,07,10.50
2006,07,19,06,08,10.50
2006,07,19,06,09,10.50
2006,07,19,06,10,10.50
2006,07,19,06,11,10.50
2006,07,19,06,12,10.60
2006,07,19,06,13,10.60
2006,07,19,06,14,10.60
2006,07,19,06,15,10.60
2006,07,19,06,16,10.60
2006,07,19,06,17,10.60
2006,07,19,06,18,10.70
2006,07,19,06,19,10.70
2006,07,19,06,20,10.70
2006,07,19,06,21,10.80
2006,07,19,06,22,10.80
2006,07,19,06,23,10.80
2006,07,19,06,24,10.80
2006,07,19,06,25,10.90
2006,07,19,06,26,10.90
2006,07,19,06,27,10.90
2006,07,19,06,28,11.00
2006,07,19,06,29,11.00
2006,07,19,06,30,11.00
2006,07,19,06,31,11.10
2006,07,19,06,32,11.10
2006,07,19,06,33,11.10
2006,07,19,06,34,11.20
2006,07,19,06,35,11.20
2006,07,19,06,36,11.20
2006,07,19,06,37,11.30
2006,07,19,06,38,11.30
2006,07,19,06,39,11.30
2006,07,19,06,40,11.40
2006,07,19,06,41,11.40
2006,07,19,06,42,11.50
2006,07,19,06,43,11.50
2006,07,19,06,44,11.60
2006,07,19,06,45,11.60
2006,07,19,06,46,11.70
2006,07,19,06,47,11.70
2006,07,19,06,48,11.80
2006,07,19,06,49,11.90
2006,07,19,06,50,11.90
2006,07,19,06,51,12.00
2006,07,19,06,52,12.00
2006,07,19,06,53,12.10
2006,07,19,06,54,12.10
2006,07,19,06,55,12.10
2006,07,19,06,56,12.20
2006,07,19,06,57,12.30
2006,07,19,06,58,12.30
2006,07,19,06,59,12.40
2006,07,19,07,00,12.50
2006,07,19,07,01,12.50
2006,07,19,07,02,12.60
2006,07,19,07,03,12.60
2006,07,19,07,04,12.70
2006,07,19,07,05,12.70
2006,07,19,07,06,12.70
2006,07,19,07,07,12.80
2006,07,19,07,08,12.80
2006,07,19,07,09,12.80
2006,07,19,07,10,12.80
2006,07,19,07,11,12.90
2006,07,19,07,12,12.90
2006,07,19,07,13,12.90
2006,07,19,07,14,12.90
2006,07,19,07,15,12.90
2006,07,19,07,16,12.90
2006,07,19,07,17,13.00
2006,07,19,07,18,13.00
2006,07,19,07,19,13.10
2006,07,19,07,20,13.10
2006,07,19,07,21,13.10
2006,07,19,07,22,13.20
2006,07,19,07,23,13.20
2006,07,19,07,24,13.20
2006,07,19,07,25,13.30
2006,07,19,07,26,13.30
2006,07,19,07,27,13.30
2006,07,19,07,28,13.40
2006,07,19,07,29,13.40
2006,07,19,07,30,13.50
2006,07,19,07,31,13.50
2006,07,19,07,32,13.60
2006,07,19,07,33,13.60
2006,07,19,07,34,13.70
2006,07,19,07,35,13.80
2006,07,19,07,36,13.80
2006,07,19,07,37,14.00
2006,07,19,07,38,14.10
2006,07,19,07,39,14.20
2006,07,19,07,40,14.30
2006,07,19,07,41,14.30
2006,07,19,07,42,14.30
2006,07,19,07,43,14.30
2006,07,19,07,44,14.30
2006,07,19,07,45,14.40
2006,07,19,07,46,14.40
2006,07,19,07,47,14.40
2006,07,19,07,48,14.40
2006,07,19,07,49,14.50
2006,07,19,07,50,14.50
2006,07,19,07,51,14.60
2006,07,19,07,52,14.60
2006,07,19,07,53,14.70
2006,07,19,07,54,14.70
2006,07,19,07,55,14.80
2006,07,19,07,56,14.80
2006,07,19,07,57,14.90
2006,07,19,07,58,15.00
2006,07,19,07,59,15.00
2006,07,19,08,00,15.10
2006,07,19,08,01,15.30
2006,07,19,08,02,15.40
2006,07,19,08,03,15.50
2006,07,19,08,04,15.70
2006,07,19,08,05,15.80
2006,07,19,08,06,15.80
2006,07,19,08,07,15.90
2006,07,19,08,08,15.90
2006,07,19,08,09,15.90
2006,07,19,08,10,15.90
2006,07,19,08,11,15.90
2006,07,19,08,12,15.90
2006,07,19,08,13,15.80
2006,07,19,08,14,15.70
2006,07,19,08,15,15.70
2006,07,19,08,16,15.60
2006,07,19,08,17,15.60
2006,07,19,08,18,15.50
2006,07,19,08,19,15.40
2006,07,19,08,20,15.40
2006,07,19,08,21,15.40
2006,07,19,08,22,15.50
2006,07,19,08,23,15.50
2006,07,19,08,24,15.60
2006,07,19,08,25,15.60
2006,07,19,08,26,15.60
2006,07,19,08,27,15.60
2006,07,19,08,28,15.60
2006,07,19,08,29,15.60
2006,07,19,08,30,15.60
2006,07,19,08,31,15.60
2006,07,19,08,32,15.60
2006,07,19,08,33,15.60
2006,07,19,08,34,15.70
2006,07,19,08,35,15.70
2006,07,19,08,36,15.80
2006,07,19,08,37,15.80
2006,07,19,08,38,15.90
2006,07,19,08,39,15.90
2006,07,19,08,40,16.00
2006,07,19,08,41,16.00
2006,07,19,08,42,16.10
2006,07,19,08,43,16.20
2006,07,19,08,44,16.20
2006,07,19,08,45,16.30
2006,07,19,08,46,16.30
2006,07,19,08,47,16.40
2006,07,19,08,48,16.40
2006,07,19,08,49,16.40
2006,07,19,08,50,16.40
2006,07,19,08,51,16.40
2006,07,19,08,52,16.40
2006,07,19,08,53,16.30
2006,07,19,08,54,16.20
2006,07,19,08,55,16.20
2006,07,19,08,56,16.20
2006,07,19,08,57,16.20
2006,07,19,08,58,16.20
2006,07,19,08,59,16.30
2006,07,19,09,00,16.30
2006,07,19,09,01,16.30
2006,07,19,09,02,16.30
2006,07,19,09,03,16.30
2006,07,19,09,04,16.30
2006,07,19,09,05,16.30
2006,07,19,09,06,16.30
2006,07,19,09,07,16.30
2006,07,19,09,08,16.30
2006,07,19,09,09,16.30
2006,07,19,09,10,16.30
2006,07,19,09,11,16.20
2006,07,19,09,12,16.20
2006,07,19,09,13,16.20
2006,07,19,09,14,16.20
2006,07,19,09,15,16.30
2006,07,19,09,16,16.30
2006,07,19,09,17,16.30
2006,07,19,09,18,16.40
2006,07,19,09,19,16.40
2006,07,19,09,20,16.40
2006,07,19,09,21,16.40
2006,07,19,09,22,16.40
2006,07,19,09,23,16.40
2006,07,19,09,24,16.40
2006,07,19,09,25,16.50
2006,07,19,09,26,16.50
2006,07,19,09,27,16.50
2006,07,19,09,28,16.60
2006,07,19,09,29,16.60
2006,07,19,09,30,16.70
2006,07,19,09,31,16.70
2006,07,19,09,32,16.70
2006,07,19,09,33,16.70
2006,07,19,09,34,16.70
2006,07,19,09,35,16.70
2006,07,19,09,36,16.70
2006,07,19,09,37,16.70
2006,07,19,09,38,16.70
2006,07,19,09,39,16.70
2006,07,19,09,40,16.70
2006,07,19,09,41,16.70
2006,07,19,09,42,16.70
2006,07,19,09,43,16.80
2006,07,19,09,44,16.80
2006,07,19,09,45,16.90
2006,07,19,09,46,16.90
2006,07,19,09,47,16.90
2006,07,19,09,48,16.90
2006,07,19,09,49,16.90
2006,07,19,09,50,17.00
2006,07,19,09,51,17.00
2006,07,19,09,52,17.00
2006,07,19,09,53,16.90
2006,07,19,09,54,16.90
2006,07,19,09,55,16.90
2006,07,19,09,56,17.00
2006,07,19,09,57,17.10
2006,07,19,09,58,17.10
2006,07,19,09,59,17.10
2006,07,19,10,00,17.20
2006,07,19,10,01,17.20
2006,07,19,10,02,17.20
2006,07,19,10,03,17.30
2006,07,19,10,04,17.20
2006,07,19,10,05,17.20
2006,07,19,10,06,17.20
2006,07,19,10,07,17.20
2006,07,19,10,08,17.20
2006,07,19,10,09,17.10
2006,07,19,10,10,17.10
2006,07,19,10,11,17.20
2006,07,19,10,12,17.10
2006,07,19,10,13,17.00
2006,07,19,10,14,16.90
2006,07,19,10,15,16.80
2006,07,19,10,16,16.80
2006,07,19,10,17,16.80
2006,07,19,10,18,16.80
2006,07,19,10,19,16.80
2006,07,19,10,20,16.80
2006,07,19,10,21,16.90
2006,07,19,10,22,17.00
2006,07,19,10,23,17.00
2006,07,19,10,24,17.10
2006,07,19,10,25,17.00
2006,07,19,10,26,17.00
2006,07,19,10,27,16.90
2006,07,19,10,28,16.90
2006,07,19,10,29,16.90
2006,07,19,10,30,16.80
2006,07,19,10,31,16.80
2006,07,19,10,32,16.80
2006,07,19,10,33,16.90
2006,07,19,10,34,17.00
2006,07,19,10,35,17.00
2006,07,19,10,36,17.00
2006,07,19,10,37,17.10
2006,07,19,10,38,17.10
2006,07,19,10,39,17.10
2006,07,19,10,40,17.00
2006,07,19,10,41,17.00
2006,07,19,10,42,17.10
2006,07,19,10,43,17.10
2006,07,19,10,44,17.20
2006,07,19,10,45,17.20
2006,07,19,10,46,17.20
2006,07,19,10,47,17.30
2006,07,19,10,48,17.30
2006,07,19,10,49,17.20
2006,07,19,10,50,17.20
2006,07,19,10,51,17.20
2006,07,19,10,52,17.10
2006,07,19,10,53,17.00
2006,07,19,10,54,16.90
2006,07,19,10,55,16.80
2006,07,19,10,56,16.80
2006,07,19,10,57,16.80
2006,07,19,10,58,16.80
2006,07,19,10,59,16.80
2006,07,19,11,00,16.80
2006,07,19,11,01,16.80
2006,07,19,11,02,16.80
2006,07,19,11,03,16.80
2006,07,19,11,04,16.80
2006,07,19,11,05,16.90
2006,07,19,11,06,17.00
2006,07,19,11,07,17.20
2006,07,19,11,08,17.30
2006,07,19,11,09,17.40
2006,07,19,11,10,17.50
2006,07,19,11,11,17.60
2006,07,19,11,12,17.80
2006,07,19,11,13,17.80
2006,07,19,11,14,17.90
2006,07,19,11,15,18.00
2006,07,19,11,16,18.10
2006,07,19,11,17,18.30
2006,07,19,11,18,18.30
2006,07,19,11,19,18.30
2006,07,19,11,20,18.30
2006,07,19,11,21,18.30
2006,07,19,11,22,18.30
2006,07,19,11,23,18.40
2006,07,19,11,24,18.40
2006,07,19,11,25,18.30
2006,07,19,11,26,18.30
2006,07,19,11,27,18.30
2006,07,19,11,28,18.30
2006,07,19,11,29,18.40
2006,07,19,11,30,18.50
2006,07,19,11,31,18.50
2006,07,19,11,32,18.60
2006,07,19,11,33,18.80
2006,07,19,11,34,18.90
2006,07,19,11,35,19.10
2006,07,19,11,36,19.10
2006,07,19,11,37,19.10
2006,07,19,11,38,19.00
2006,07,19,11,39,18.90
2006,07,19,11,40,18.80
2006,07,19,11,41,18.80
2006,07,19,11,42,18.70
2006,07,19,11,43,18.60
2006,07,19,11,44,18.40
2006,07,19,11,45,18.30
2006,07,19,11,46,18.20
2006,07,19,11,47,18.00
2006,07,19,11,48,17.90
2006,07,19,11,49,17.80
2006,07,19,11,50,17.80
2006,07,19,11,51,17.80
2006,07,19,11,52,17.80
2006,07,19,11,53,17.80
2006,07,19,11,54,17.80
2006,07,19,11,55,17.70
2006,07,19,11,56,17.70
2006,07,19,11,57,17.70
2006,07,19,11,58,17.60
2006,07,19,11,59,17.60
2006,07,19,12,00,17.60
2006,07,19,12,01,17.50
2006,07,19,12,02,17.50
2006,07,19,12,03,17.50
2006,07,19,12,04,17.40
2006,07,19,12,05,17.30
2006,07,19,12,06,17.20
2006,07,19,12,07,17.20
2006,07,19,12,08,17.10
2006,07,19,12,09,17.00
2006,07,19,12,10,16.90
2006,07,19,12,11,16.80
2006,07,19,12,12,16.80
2006,07,19,12,13,16.80
2006,07,19,12,14,16.70
2006,07,19,12,15,16.70
2006,07,19,12,16,16.70
2006,07,19,12,17,16.70
2006,07,19,12,18,16.70
2006,07,19,12,19,16.80
2006,07,19,12,20,16.70
2006,07,19,12,21,16.70
2006,07,19,12,22,16.60
2006,07,19,12,23,16.60
2006,07,19,12,24,16.50
2006,07,19,12,25,16.50
2006,07,19,12,26,16.40
2006,07,19,12,27,16.50
2006,07,19,12,28,16.50
2006,07,19,12,29,16.60
2006,07,19,12,30,16.60
2006,07,19,12,31,16.60
2006,07,19,12,32,16.70
2006,07,19,12,33,16.80
2006,07,19,12,34,16.90
2006,07,19,12,35,16.90
2006,07,19,12,36,17.00
2006,07,19,12,37,17.00
2006,07,19,12,38,17.10
2006,07,19,12,39,17.20
2006,07,19,12,40,17.30
2006,07,19,12,41,17.30
2006,07,19,12,42,17.30
2006,07,19,12,43,17.30
2006,07,19,12,44,17.30
2006,07,19,12,45,17.30
2006,07,19,12,46,17.30
2006,07,19,12,47,17.40
2006,07,19,12,48,17.40
2006,07,19,12,49,17.50
2006,07,19,12,50,17.60
2006,07,19,12,51,17.70
2006,07,19,12,52,17.70
2006,07,19,12,53,17.80
2006,07,19,12,54,17.80
2006,07,19,12,55,17.80
2006,07,19,12,56,17.80
2006,07,19,12,57,17.80
2006,07,19,12,58,17.90
2006,07,19,12,59,17.90
2006,07,19,13,00,17.90
2006,07,19,13,01,17.90
2006,07,19,13,02,18.00
2006,07,19,13,03,18.00
2006,07,19,13,04,18.10
2006,07,19,13,05,18.00
2006,07,19,13,06,17.90
2006,07,19,13,07,17.80
2006,07,19,13,08,17.70
2006,07,19,13,09,17.60
2006,07,19,13,10,17.50
2006,07,19,13,11,17.30
2006,07,19,13,12,17.30
2006,07,19,13,13,17.30
2006,07,19,13,14,17.20
2006,07,19,13,15,17.20
2006,07,19,13,16,17.20
2006,07,19,13,17,17.20
2006,07,19,13,18,17.20
2006,07,19,13,19,17.30
2006,07,19,13,20,17.40
2006,07,19,13,21,17.40
2006,07,19,13,22,17.40
2006,07,19,13,23,17.50
2006,07,19,13,24,17.60
2006,07,19,13,25,17.70
2006,07,19,13,26,17.80
2006,07,19,13,27,17.90
2006,07,19,13,28,17.90
2006,07,19,13,29,17.90
2006,07,19,13,30,17.90
2006,07,19,13,31,18.00
2006,07,19,13,32,18.00
2006,07,19,13,33,18.00
2006,07,19,13,34,18.00
2006,07,19,13,35,18.00
2006,07,19,13,36,17.90
2006,07,19,13,37,17.90
2006,07,19,13,38,17.80
2006,07,19,13,39,17.80
2006,07,19,13,40,17.70
2006,07,19,13,41,17.70
2006,07,19,13,42,17.70
2006,07,19,13,43,17.70
2006,07,19,13,44,17.70
2006,07,19,13,45,17.80
2006,07,19,13,46,18.00
2006,07,19,13,47,18.20
2006,07,19,13,48,18.30
2006,07,19,13,49,18.30
2006,07,19,13,50,18.30
2006,07,19,13,51,18.30
2006,07,19,13,52,18.40
2006,07,19,13,53,18.50
2006,07,19,13,54,18.60
2006,07,19,13,55,18.60
2006,07,19,13,56,18.60
2006,07,19,13,57,18.60
2006,07,19,13,58,18.70
2006,07,19,13,59,18.70
2006,07,19,14,00,18.80
2006,07,19,14,01,18.90
2006,07,19,14,02,19.00
2006,07,19,14,03,19.20
2006,07,19,14,04,19.40
2006,07,19,14,05,19.50
2006,07,19,14,06,19.60
2006,07,19,14,07,19.50
2006,07,19,14,08,19.50
2006,07,19,14,09,19.40
2006,07,19,14,10,19.50
2006,07,19,14,11,19.50
2006,07,19,14,12,19.60
2006,07,19,14,13,19.60
2006,07,19,14,14,19.70
2006,07,19,14,15,19.80
2006,07,19,14,16,19.90
2006,07,19,14,17,20.00
2006,07,19,14,18,20.10
2006,07,19,14,19,20.10
2006,07,19,14,20,20.10
2006,07,19,14,21,19.90
2006,07,19,14,22,19.80
2006,07,19,14,23,19.70
2006,07,19,14,24,19.70
2006,07,19,14,25,19.70
2006,07,19,14,26,19.70
2006,07,19,14,27,19.70
2006,07,19,14,28,19.60
2006,07,19,14,29,19.50
2006,07,19,14,30,19.50
2006,07,19,14,31,19.60
2006,07,19,14,32,19.70
2006,07,19,14,33,19.70
2006,07,19,14,34,19.70
2006,07,19,14,35,19.80
2006,07,19,14,36,19.90
2006,07,19,14,37,19.90
2006,07,19,14,38,20.00
2006,07,19,14,39,20.10
2006,07,19,14,40,20.00
2006,07,19,14,41,20.00
2006,07,19,14,42,20.00
2006,07,19,14,43,20.00
2006,07,19,14,44,20.00
2006,07,19,14,45,20.00
2006,07,19,14,46,19.90
2006,07,19,14,47,19.90
2006,07,19,14,48,19.90
2006,07,19,14,49,20.00
2006,07,19,14,50,20.10
2006,07,19,14,51,20.10
2006,07,19,14,52,20.10
2006,07,19,14,53,20.10
2006,07,19,14,54,20.20
2006,07,19,14,55,20.30
2006,07,19,14,56,20.50
2006,07,19,14,57,20.60
2006,07,19,14,58,20.70
2006,07,19,14,59,20.70
2006,07,19,15,00,20.70
2006,07,19,15,01,20.80
2006,07,19,15,02,20.90
2006,07,19,15,03,20.90
2006,07,19,15,04,20.90
2006,07,19,15,05,21.00
2006,07,19,15,06,21.20
2006,07,19,15,07,21.40
2006,07,19,15,08,21.60
2006,07,19,15,09,21.80
2006,07,19,15,10,21.90
2006,07,19,15,11,21.90
2006,07,19,15,12,22.00
2006,07,19,15,13,22.10
2006,07,19,15,14,22.20
2006,07,19,15,15,22.30
2006,07,19,15,16,22.40
2006,07,19,15,17,22.50
2006,07,19,15,18,22.40
2006,07,19,15,19,22.30
2006,07,19,15,20,22.30
2006,07,19,15,21,22.20
2006,07,19,15,22,22.00
2006,07,19,15,23,21.90
2006,07,19,15,24,21.80
2006,07,19,15,25,21.80
2006,07,19,15,26,21.80
2006,07,19,15,27,21.80
2006,07,19,15,28,22.00
2006,07,19,15,29,22.10
2006,07,19,15,30,22.20
2006,07,19,15,31,22.10
2006,07,19,15,32,22.10
2006,07,19,15,33,22.30
2006,07,19,15,34,22.40
2006,07,19,15,35,22.60
2006,07,19,15,36,22.70
2006,07,19,15,37,22.70
2006,07,19,15,38,22.70
2006,07,19,15,39,22.60
2006,07,19,15,40,22.60
2006,07,19,15,41,22.60
2006,07,19,15,42,22.60
2006,07,19,15,43,22.70
2006,07,19,15,44,22.80
2006,07,19,15,45,22.90
2006,07,19,15,46,23.10
2006,07,19,15,47,23.20
2006,07,19,15,48,23.30
2006,07,19,15,49,23.40
2006,07,19,15,50,23.40
2006,07,19,15,51,23.40
2006,07,19,15,52,23.50
2006,07,19,15,53,23.50
2006,07,19,15,54,23.50
2006,07,19,15,55,23.40
2006,07,19,15,56,23.40
2006,07,19,15,57,23.30
2006,07,19,15,58,23.30
2006,07,19,15,59,23.40
2006,07,19,16,00,23.50
2006,07,19,16,01,23.70
2006,07,19,16,02,23.80
2006,07,19,16,03,23.90
2006,07,19,16,04,23.90
2006,07,19,16,05,23.90
2006,07,19,16,06,23.90
2006,07,19,16,07,23.80
2006,07,19,16,08,23.80
2006,07,19,16,09,23.70
2006,07,19,16,10,23.60
2006,07,19,16,11,23.60
2006,07,19,16,12,23.60
2006,07,19,16,13,23.60
2006,07,19,16,14,23.50
2006,07,19,16,15,23.50
2006,07,19,16,16,23.50
2006,07,19,16,17,23.50
2006,07,19,16,18,23.60
2006,07,19,16,19,23.70
2006,07,19,16,20,23.70
2006,07,19,16,21,23.70
2006,07,19,16,22,23.60
2006,07,19,16,23,23.60
2006,07,19,16,24,23.70
2006,07,19,16,25,23.70
2006,07,19,16,26,23.80
2006,07,19,16,27,23.90
2006,07,19,16,28,23.90
2006,07,19,16,29,24.00
2006,07,19,16,30,24.00
2006,07,19,16,31,24.10
2006,07,19,16,32,24.10
2006,07,19,16,33,24.20
2006,07,19,16,34,24.30
2006,07,19,16,35,24.30
2006,07,19,16,36,24.30
2006,07,19,16,37,24.30
2006,07,19,16,38,24.20
2006,07,19,16,39,24.10
2006,07,19,16,40,24.00
2006,07,19,16,41,24.00
2006,07,19,16,42,23.90
2006,07,19,16,43,23.80
2006,07,19,16,44,23.70
2006,07,19,16,45,23.70
2006,07,19,16,46,23.80
2006,07,19,16,47,23.80
2006,07,19,16,48,24.00
2006,07,19,16,49,24.10
2006,07,19,16,50,24.20
2006,07,19,16,51,24.30
2006,07,19,16,52,24.30
2006,07,19,16,53,24.30
2006,07,19,16,54,24.40
2006,07,19,16,55,24.50
2006,07,19,16,56,24.60
2006,07,19,16,57,24.50
2006,07,19,16,58,24.40
2006,07,19,16,59,24.30
2006,07,19,17,00,24.30
2006,07,19,17,01,24.40
2006,07,19,17,02,24.40
2006,07,19,17,03,24.40
2006,07,19,17,04,24.40
2006,07,19,17,05,24.40
2006,07,19,17,06,24.40
2006,07,19,17,07,24.30
2006,07,19,17,08,24.30
2006,07,19,17,09,24.30
2006,07,19,17,10,24.30
2006,07,19,17,11,24.20
2006,07,19,17,12,24.10
2006,07,19,17,13,24.10
2006,07,19,17,14,24.20
2006,07,19,17,15,24.30
2006,07,19,17,16,24.30
2006,07,19,17,17,24.40
2006,07,19,17,18,24.50
2006,07,19,17,19,24.50